Location: ?astrovice
(49.6513°N, 14.9287°E)
Time: 16:35:16
(UTC+00:00)

Cosmos 2058 Rocket - Pass Details

Date: 09 April 2020
Orbit: 610 x 640 km, 82.5° (Epoch: 02 June)

Event Time Altitude Azimuth Distance (km) Brightness Sun altitude
Rises 18:53:26 0° 185° (S) 2,932 6.3 -11.2°
Reaches altitude 10° 18:55:40 10° 184° (S) 2,028 5.5 -11.6°
Maximum altitude 19:00:10 80° 97° (E) 655 3.1 -12.2°
Drops below altitude 10° 19:04:41 10° 12° (NNE) 2,037 5.9 -12.8°
Sets 19:06:56 0° 11° (NNE) 2,947 6.8 -13.2°
